Weather History for Pamplona, Spain

Change the Weather History Date:

Friday, October 14, 2011

  Actual Average Record
Temperature  
Mean Temperature 60 °F -  
Max Temperature 75 °F 58 °F 77 °F (2003)
Min Temperature 44 °F 44 °F 41 °F (1998)
Degree Days  
Heating Degree Days 6    
Growing Degree Days 10 (Base 50)    
Moisture  
Dew Point 47 °F    
Average Humidity 66    
Maximum Humidity 100    
Minimum Humidity 29    
Precipitation  
Precipitation 0.00 in - - ()
Sea Level Pressure  
Sea Level Pressure 30.16 in    
Wind  
Wind Speed 3 mph ()    
Max Wind Speed 10 mph    
Max Gust Speed -    
Averages and records for this station are not official NWS values.
T = Trace of Precipitation, MM = Missing Value Source: Averaged Metar Reports

Daily Weather History Graph

Daily Weather History Graph

Search for Another Location

Airport:

Trip Planner

Search our weather history database for the weather conditions in past years. The results will help you decide how hot, cold, wet, or windy it might be!

Date:

Astronomy

Oct. 14, 2011 Rise Set
Actual Time 8:18 AM CEST 7:26 PM CEST
Civil Twilight 7:49 AM CEST 7:54 PM CEST
Nautical Twilight 7:16 AM CEST 8:27 PM CEST
Astronomical Twilight 6:44 AM CEST 9:00 PM CEST
Moon 8:25 PM CEST (10/14) 10:37 AM CEST (10/14)
Length of Visible Light 12h 05m
Length of Day
11h 08m
Waning Gibbous, 95% of the Moon is Illuminated
Oct 14
Waning Gibbous
Oct 20
Last Quarter
Oct 26
New
Nov 2
First Quarter
Nov 10
Full

Hourly Weather History & Observations

Time (CEST) Temp. Dew Point Humidity Pressure Visibility Wind Dir Wind Speed Gust Speed Precip Events Conditions
12:00 AM 57.2 °F 50.0 °F 77% 30.21 in - NW 9.2 mph - N/A   Clear
5:30 AM 48.2 °F 44.6 °F 87% 30.18 in - SSE 2.3 mph - N/A   Clear
6:00 AM 46.4 °F 44.6 °F 93% 30.18 in - Variable 1.2 mph - N/A   Clear
6:30 AM 46.4 °F 44.6 °F 93% 30.18 in - Calm Calm - N/A   Clear
7:00 AM 46.4 °F 44.6 °F 93% 30.18 in - Calm Calm - N/A   Clear
7:30 AM 46.4 °F 44.6 °F 93% 30.18 in - Calm Calm - N/A   Clear
8:00 AM 46.4 °F 44.6 °F 93% 30.18 in - East 1.2 mph - N/A   Clear
8:30 AM 44.6 °F 44.6 °F 100% 30.18 in - South 2.3 mph - N/A   Clear
9:00 AM 46.4 °F 44.6 °F 93% 30.18 in - Calm Calm - N/A   Clear
9:30 AM 48.2 °F 44.6 °F 87% 30.18 in - South 2.3 mph - N/A   Clear
10:00 AM 53.6 °F 48.2 °F 82% 30.21 in - Calm Calm - N/A   Clear
10:30 AM 55.4 °F 48.2 °F 77% 30.21 in - Variable 1.2 mph - N/A   Clear
11:00 AM 59.0 °F 50.0 °F 72% 30.21 in - Calm Calm - N/A   Clear
11:30 AM 60.8 °F 50.0 °F 68% 30.21 in - Calm Calm - N/A   Clear
12:00 PM 62.6 °F 48.2 °F 59% 30.21 in - NNE 1.2 mph - N/A   Clear
12:30 PM 64.4 °F 48.2 °F 56% 30.18 in - NNW 1.2 mph - N/A   Clear
1:00 PM 66.2 °F 46.4 °F 49% 30.18 in - North 1.2 mph - N/A   Clear
1:30 PM 68.0 °F 44.6 °F 43% 30.18 in - NNE 2.3 mph - N/A   Clear
2:00 PM 71.6 °F 44.6 °F 38% 30.15 in - Calm Calm - N/A   Clear
2:30 PM 71.6 °F 46.4 °F 41% 30.15 in - WNW 1.2 mph - N/A   Clear
3:00 PM 73.4 °F 42.8 °F 33% 30.12 in - WNW 3.5 mph - N/A   Clear
3:30 PM 73.4 °F 42.8 °F 33% 30.12 in - North 3.5 mph - N/A   Clear
4:00 PM 75.2 °F 41.0 °F 29% 30.12 in - NNW 1.2 mph - N/A   Clear
4:30 PM 75.2 °F 42.8 °F 31% 30.12 in - North 2.3 mph - N/A   Clear
5:00 PM 75.2 °F 42.8 °F 31% 30.09 in - NW 2.3 mph - N/A   Clear
5:30 PM 75.2 °F 44.6 °F 34% 30.09 in - NW 9.2 mph - N/A   Clear
6:00 PM 73.4 °F 50.0 °F 44% 30.09 in - North 10.4 mph - N/A   Clear
6:30 PM 71.6 °F 51.8 °F 50% 30.09 in - North 10.4 mph - N/A   Clear
7:00 PM 68.0 °F 51.8 °F 56% 30.12 in - NNW 10.4 mph - N/A   Clear
7:30 PM 66.2 °F 51.8 °F 60% 30.12 in - NNW 10.4 mph - N/A   Clear
8:00 PM 64.4 °F 51.8 °F 64% 30.12 in - NNW 6.9 mph - N/A   Clear
8:30 PM 62.6 °F 53.6 °F 72% 30.15 in - Variable 1.2 mph - N/A   Clear
9:00 PM 59.0 °F 51.8 °F 77% 30.15 in - Variable 2.3 mph - N/A   Clear
9:30 PM 59.0 °F 51.8 °F 77% 30.15 in - Calm Calm - N/A   Clear
10:00 PM 59.0 °F 51.8 °F 77% 30.15 in - Calm Calm - N/A   Clear
10:30 PM 57.2 °F 51.8 °F 82% 30.15 in - Calm Calm - N/A   Clear
11:00 PM 55.4 °F 51.8 °F 88% 30.15 in - Calm Calm - N/A   Clear
11:30 PM 55.4 °F 50.0 °F 82% 30.18 in - Variable 1.2 mph - N/A   Clear